Weather History for KIKV - February, 2013

Change the Weather History Date:

Thursday, February 7, 2013

  Actual Average (KDSM) Record (KDSM)
Temperature  
Mean Temperature 34 °F 25 °F  
Max Temperature 39 °F 34 °F 63 °F (1987)
Min Temperature 28 °F 16 °F -21 °F (1905)
Degree Days  
Heating Degree Days 32 40  
Month to date heating degree days 285  
Since 1 July heating degree days 4065  
Cooling Degree Days 0 0  
Month to date cooling degree days 0  
Year to date cooling degree days 0  
Moisture  
Dew Point 30 °F    
Average Humidity 86    
Maximum Humidity 93    
Minimum Humidity 75    
Precipitation  
Precipitation 0.00 in 0.04 in 0.75 in (1928)
Month to date precipitation 0.28  
Year to date precipitation 1.28  
Snow  
Snow 0.00 in 0.40 in 3.40 in (2005)
Month to date snowfall 2.3  
Since 1 July snowfall 22.7  
Snow Depth -    
Sea Level Pressure  
Sea Level Pressure 30.00 in    
Wind  
Wind Speed 7 mph (NNW)    
Max Wind Speed 18 mph    
Max Gust Speed 26 mph    
Visibility 5 miles    
Events Rain    
T = Trace of Precipitation, MM = Missing Value Source: NWS Daily Summary

Daily Weather History Graph

Daily Weather History Graph

Search for Another Location

Airport or City:

Trip Planner

Search our weather history database for the weather conditions in past years. The results will help you decide how hot, cold, wet, or windy it might be!

Date:

Astronomy

Feb. 07, 2013 Rise Set
Actual Time 7:19 AM CST 5:37 PM CST
Civil Twilight 6:50 AM CST 6:06 PM CST
Nautical Twilight 6:17 AM CST 6:39 PM CST
Astronomical Twilight 5:45 AM CST 7:12 PM CST
Moon 5:00 AM CST (2/7) 3:02 PM CST (2/7)
Length of Visible Light 11h 16m
Length of Day
10h 18m
Waning Crescent, 9% of the Moon is Illuminated
Feb 7
Waning Crescent
Feb 10
New
Feb 17
First Quarter
Feb 25
Full
Mar 4
Last Quarter

Hourly Weather History & Observations

Time (CST) Temp. Windchill Dew Point Humidity Pressure Visibility Wind Dir Wind Speed Gust Speed Precip Events Conditions
12:15 AM 37.4 °F 34.9 °F 32.0 °F 81% 29.92 in 10.0 mi SE 3.5 mph - N/A   Scattered Clouds
12:35 AM 37.4 °F 32.8 °F 32.0 °F 81% 29.91 in 10.0 mi SSE 5.8 mph - N/A   Clear
12:55 AM 37.4 °F - 32.0 °F 81% 29.91 in 10.0 mi Calm Calm - N/A   Clear
1:15 AM 39.2 °F 35.9 °F 32.0 °F 75% 29.90 in 10.0 mi SSE 4.6 mph - N/A   Scattered Clouds
1:35 AM 37.4 °F - 32.0 °F 81% 29.90 in 10.0 mi Calm Calm - N/A   Scattered Clouds
1:55 AM 39.2 °F 35.9 °F 32.0 °F 75% 29.89 in 10.0 mi SE 4.6 mph - N/A   Scattered Clouds
2:15 AM 39.2 °F 35.0 °F 33.8 °F 81% 29.89 in 10.0 mi SSE 5.8 mph - N/A   Drizzle
2:35 AM 39.2 °F 35.9 °F 33.8 °F 81% 29.89 in 10.0 mi SSE 4.6 mph - N/A   Drizzle
2:55 AM 39.2 °F - 35.6 °F 87% 29.89 in 10.0 mi Calm Calm - N/A   Light Drizzle
3:15 AM 37.4 °F - 33.8 °F 87% 29.89 in 10.0 mi Calm Calm - N/A   Mostly Cloudy
3:35 AM 37.4 °F - 35.6 °F 93% 29.88 in 10.0 mi Calm Calm - N/A Rain Rain
3:55 AM 37.4 °F 33.8 °F 35.6 °F 93% 29.89 in 7.0 mi North 4.6 mph - N/A   Light Drizzle
4:15 AM 37.4 °F 33.8 °F 33.8 °F 87% 29.89 in 7.0 mi North 4.6 mph - N/A   Clear
4:35 AM 35.6 °F 31.7 °F 33.8 °F 93% 29.89 in 7.0 mi North 4.6 mph - N/A   Clear
4:55 AM 35.6 °F 31.7 °F 33.8 °F 93% 29.89 in 7.0 mi North 4.6 mph - N/A   Clear
5:15 AM 35.6 °F - 33.8 °F 93% 29.89 in 7.0 mi Calm Calm - N/A   Light Drizzle
5:35 AM 35.6 °F - 32.0 °F 87% 29.89 in 5.0 mi Calm Calm - N/A Rain Light Rain
5:55 AM 35.6 °F - 32.0 °F 87% 29.89 in 5.0 mi Calm Calm - N/A Rain Light Rain
6:15 AM 35.6 °F - 33.8 °F 93% 29.89 in 4.0 mi Calm Calm - N/A Rain Rain
6:35 AM 35.6 °F - 33.8 °F 93% 29.89 in 5.0 mi Calm Calm - N/A Rain Light Rain
6:55 AM 35.6 °F - 32.0 °F 87% 29.90 in 4.0 mi Calm Calm - N/A Rain Rain
7:15 AM 35.6 °F 32.8 °F 32.0 °F 87% 29.91 in 2.5 mi North 3.5 mph - N/A Rain Light Rain
7:35 AM 35.6 °F 31.7 °F 33.8 °F 93% 29.92 in 3.0 mi NNW 4.6 mph - N/A Rain Rain
7:55 AM 35.6 °F 32.8 °F 33.8 °F 93% 29.91 in 2.5 mi NNW 3.5 mph - N/A Rain Rain
8:15 AM 35.6 °F 32.8 °F 33.8 °F 93% 29.93 in 2.0 mi NW 3.5 mph - N/A Rain Light Rain
8:35 AM 35.6 °F 29.2 °F 33.8 °F 93% 29.93 in 4.0 mi NNW 8.1 mph - N/A Rain Light Rain
8:55 AM 35.6 °F 30.7 °F 33.8 °F 93% 29.95 in 4.0 mi NNW 5.8 mph - N/A Rain Light Rain
9:15 AM 35.6 °F 29.9 °F 33.8 °F 93% 29.95 in 1.8 mi NNW 6.9 mph - N/A Rain Rain
9:35 AM 35.6 °F 28.0 °F 32.0 °F 87% 29.96 in 2.0 mi NNW 10.4 mph - N/A Rain Light Rain
9:55 AM 35.6 °F 27.5 °F 32.0 °F 87% 29.96 in 2.5 mi NNW 11.5 mph 16.1 mph N/A Rain Light Rain
10:15 AM 33.8 °F 25.8 °F 30.2 °F 87% 29.96 in 2.0 mi NNW 10.4 mph 17.3 mph N/A Rain Light Rain
10:35 AM 33.8 °F 25.3 °F 30.2 °F 87% 29.97 in 2.0 mi NNW 11.5 mph - N/A   Drizzle
10:55 AM 33.8 °F 25.8 °F 30.2 °F 87% 29.97 in 2.5 mi NNW 10.4 mph - N/A   Light Drizzle
11:15 AM 35.6 °F 27.5 °F 30.2 °F 81% 29.98 in 3.0 mi NW 11.5 mph 18.4 mph N/A   Overcast
11:35 AM 32.0 °F 22.5 °F 28.4 °F 87% 29.98 in 2.0 mi NNW 12.7 mph 17.3 mph N/A   Overcast
11:55 AM 33.8 °F 24.8 °F 30.2 °F 87% 29.98 in 2.0 mi NW 12.7 mph - N/A   Overcast
12:15 PM 33.8 °F 23.5 °F 30.2 °F 87% 29.98 in 2.0 mi NNW 16.1 mph 19.6 mph N/A   Overcast
12:35 PM 33.8 °F 23.9 °F 30.2 °F 87% 29.98 in 2.0 mi NNW 15.0 mph 25.3 mph N/A   Overcast
12:55 PM 33.8 °F 23.5 °F 30.2 °F 87% 29.98 in 2.0 mi NNW 16.1 mph 25.3 mph N/A   Overcast
1:15 PM 33.8 °F 23.9 °F 30.2 °F 87% 29.99 in 2.0 mi NNW 15.0 mph 20.7 mph N/A   Overcast
1:35 PM 32.0 °F 20.5 °F 28.4 °F 87% 29.99 in 2.0 mi NNW 18.4 mph 25.3 mph N/A   Overcast
1:55 PM 32.0 °F 20.5 °F 28.4 °F 87% 29.99 in 2.5 mi NNW 18.4 mph 25.3 mph N/A   Overcast
2:15 PM 32.0 °F 21.2 °F 28.4 °F 87% 29.99 in 2.5 mi NNW 16.1 mph 24.2 mph N/A   Overcast
2:35 PM 32.0 °F 21.2 °F 28.4 °F 87% 30.00 in 2.5 mi NNW 16.1 mph 23.0 mph N/A   Overcast
2:55 PM 30.2 °F 18.9 °F 28.4 °F 93% 30.00 in 2.5 mi NNW 16.1 mph 23.0 mph N/A   Overcast
3:15 PM 30.2 °F 18.1 °F 28.4 °F 93% 30.02 in 2.5 mi NNW 18.4 mph 25.3 mph N/A   Overcast
3:35 PM 30.2 °F 19.8 °F 26.6 °F 86% 30.02 in 2.0 mi NNW 13.8 mph 21.9 mph N/A   Overcast
3:55 PM 30.2 °F 18.9 °F 26.6 °F 86% 30.03 in 2.5 mi NNW 16.1 mph 21.9 mph N/A   Overcast
4:15 PM 30.2 °F 19.8 °F 26.6 °F 86% 30.04 in 2.5 mi NNW 13.8 mph 21.9 mph N/A   Overcast
4:35 PM 30.2 °F 19.8 °F 26.6 °F 86% 30.05 in 3.0 mi NNW 13.8 mph 18.4 mph N/A   Overcast
4:55 PM 30.2 °F 18.9 °F 26.6 °F 86% 30.06 in 4.0 mi NNW 16.1 mph 26.5 mph N/A   Overcast
5:35 PM 30.2 °F 19.3 °F 26.6 °F 86% 30.08 in 5.0 mi NNW 15.0 mph 20.7 mph N/A   Overcast
5:55 PM 30.2 °F 20.2 °F 26.6 °F 86% 30.09 in 5.0 mi NNW 12.7 mph - N/A   Overcast
6:15 PM 30.2 °F 21.3 °F 26.6 °F 86% 30.11 in 7.0 mi NW 10.4 mph 21.9 mph N/A   Overcast
6:35 PM 30.2 °F 19.3 °F 26.6 °F 86% 30.12 in 7.0 mi NNW 15.0 mph 23.0 mph N/A   Overcast
6:55 PM 30.2 °F 18.5 °F 24.8 °F 80% 30.12 in 7.0 mi NNW 17.3 mph 23.0 mph N/A   Overcast
7:15 PM 30.2 °F 18.5 °F 24.8 °F 80% 30.13 in 7.0 mi NNW 17.3 mph 23.0 mph N/A   Overcast
7:35 PM 30.2 °F 18.1 °F 24.8 °F 80% 30.14 in 7.0 mi NNW 18.4 mph - N/A   Overcast
7:55 PM 30.2 °F 19.8 °F 24.8 °F 80% 30.14 in 7.0 mi NNW 13.8 mph 20.7 mph N/A   Overcast
8:15 PM 30.2 °F 19.8 °F 24.8 °F 80% 30.14 in 7.0 mi NNW 13.8 mph - N/A   Overcast
8:35 PM 30.2 °F 19.8 °F 24.8 °F 80% 30.15 in 7.0 mi NNW 13.8 mph - N/A   Overcast
8:55 PM 30.2 °F 21.9 °F 24.8 °F 80% 30.15 in 7.0 mi NNW 9.2 mph 17.3 mph N/A   Overcast
9:15 PM 30.2 °F 19.8 °F 24.8 °F 80% 30.16 in 7.0 mi North 13.8 mph 18.4 mph N/A   Overcast
9:35 PM 30.2 °F 18.5 °F 24.8 °F 80% 30.16 in 7.0 mi North 17.3 mph 20.7 mph N/A   Overcast
9:55 PM 28.4 °F 18.0 °F 24.8 °F 86% 30.17 in 7.0 mi NNW 12.7 mph - N/A   Overcast
10:15 PM 28.4 °F 16.6 °F 24.8 °F 86% 30.17 in 7.0 mi NNW 16.1 mph 19.6 mph N/A   Overcast
10:35 PM 28.4 °F 15.8 °F 24.8 °F 86% 30.18 in 7.0 mi NNW 18.4 mph - N/A   Overcast
10:55 PM 28.4 °F 18.0 °F 24.8 °F 86% 30.18 in 7.0 mi NNW 12.7 mph 23.0 mph N/A   Overcast
11:15 PM 28.4 °F 17.5 °F 24.8 °F 86% 30.19 in 7.0 mi North 13.8 mph - N/A   Overcast
11:35 PM 28.4 °F 16.6 °F 24.8 °F 86% 30.19 in 10.0 mi North 16.1 mph 21.9 mph N/A   Overcast
11:55 PM 28.4 °F 18.5 °F 24.8 °F 86% 30.20 in 7.0 mi North 11.5 mph 16.1 mph N/A   Overcast